CHINASAT 26 (ZX 26) (55686 NORAD) Tracking and Keplerian Element Data

This shows tracking and keplerian element data for the satellite.

Feedback or suggestion? Click here.




ElementValue
Catalog55686
NameCHINASAT 26 (ZX 26)
Epoch Orbit41
Epoch Day84.79843006
Epoch Year2023
RAAN60.3698
Inclination0.0596
Eccentricity0.0003965
Argument of Perigee3.0225
Mean Anonmoly172.0429
Mean Motion1.0026807
Decay Rate-3.63E-06
L11 55686U 23023A 23084.79843006 -.00000363 00000+0 00000+0 0 9995
L22 55686 0.0596 60.3698 0003965 3.0225 172.0429 1.00268070 413



Live tracking and technical data element details for CHINASAT 26 (ZX 26) (NORAD 55686). CHINASAT 26 (ZX 26) can be tracked NOW for your location showing map with azimuth and elevation plus other details from your city location.







IsCatalogInMostPopularTable: catalog: 55686, numindb: 5
Update: records affected: 1



GetName: 55686 CHINASAT 26 (ZX 26)

Hit Count: updated at: Tue, 28 Mar 2023 02:28:15 GMT